Overview Statistics Trail Chart Weather Telemetry Raw packets
 

This is the latest recevied weather packets stored in our database for station/object WX5KDM. If no packets are shown the sender has not sent any weather packets the latest 10 day(s).

<< 12 13 14 15 16 17 18 >>
Time Temp. Humidity Pressure Rain* Wind** Luminosity Snow
1788538189 35.56° C 55% 1017.1 hPa 0 mm - - -
1788537889 35° C 57% 1017.1 hPa 0 mm - - -
1788537584 35° C 56% 1017.2 hPa 0 mm - - -
1788537279 34.44° C 56% 1017.2 hPa 0 mm - - -
1788536977 34.44° C 56% 1017.3 hPa 0 mm - - -
1788536672 34.44° C 57% 1017.2 hPa 0 mm - - -
1788536367 35° C 58% 1017 hPa 0 mm - - -
1788536062 35° C 56% 1017.3 hPa 0 mm - - -
1788535759 33.89° C 58% 1017 hPa 0 mm - - -
1788535454 33.33° C 62% 1017 hPa 0 mm - - -
1788535154 33.33° C 61% 1017.1 hPa 0 mm - - -
1788534849 33.89° C 60% 1017.1 hPa 0 mm - - -
1788534544 33.33° C 62% 1017 hPa 0 mm - - -
1788534239 33.89° C 62% 1017.2 hPa 0 mm - - -
1788533936 34.44° C 60% 1017.2 hPa 0 mm - - -
1788533633 34.44° C 59% 1017.4 hPa 0 mm - - -
1788533329 33.33° C 62% 1017.2 hPa 0 mm - - -
1788533024 32.78° C 62% 1017.1 hPa 0 mm - - -
1788532719 33.33° C 63% 1017.1 hPa 0 mm - - -
1788532416 33.33° C 64% 1017 hPa 0 mm - - -
1788532112 32.78° C 64% 1016.8 hPa 0 mm - - -
1788531807 32.22° C 66% 1016.8 hPa 0 mm - - -
1788531502 32.22° C 66% 1016.9 hPa 0 mm - - -
1788531197 32.78° C 64% 1017 hPa 0 mm - - -
1788530894 31.67° C 66% 1017.2 hPa 0 mm - - -

* Rain latest hour (hover to see other rain measurements)
** Current wind speed in m/s (hover to see current wind gust speed)